• In Russia
  • List of Countries
  • For 7 days
  • Water Temperature
  • Satellite Maps
  • Weather Map
  • Weather Widgets
  • user-avatar
    Login

    Hourly Weather Innsbruck

    Today, 23 March, Thursday

    Time Temperature Precipitation Wind Pressure Humidity
    00:00 -3°C° 0.1 mm 2 mps 590 mmHg 97%
    01:00 -4°C° 0 mm 2 mps 590 mmHg 97%
    02:00 -4°C° 0.1 mm 2 mps 590 mmHg 97%
    03:00 -5°C° 0.1 mm 2 mps 590 mmHg 97%
    04:00 -3°C° 0.1 mm 1 mps 590 mmHg 97%
    05:00 -3°C° 0.1 mm 1 mps 590 mmHg 97%
    06:00 -2°C° 0.1 mm 1 mps 590 mmHg 97%
    07:00 -2°C° 0.1 mm 1 mps 591 mmHg 96%
    08:00 -1°C° 0.1 mm 1 mps 592 mmHg 95%
    09:00 +1°C° 0.1 mm 1 mps 592 mmHg 93%
    10:00 +3°C° 0.1 mm 1 mps 593 mmHg 92%
    11:00 +3°C° 0.1 mm 1 mps 593 mmHg 90%
    12:00 +4°C° 0.1 mm 1 mps 594 mmHg 89%
    13:00 +5°C° 0.1 mm 1 mps 594 mmHg 87%
    14:00 +4°C° 0.1 mm 1 mps 594 mmHg 88%
    15:00 +4°C° 0.1 mm 1 mps 594 mmHg 88%
    16:00 +3°C° 0.1 mm 2 mps 594 mmHg 89%
    17:00 +2°C° 0 mm 2 mps 593 mmHg 91%
    18:00 -1°C° 0 mm 2 mps 593 mmHg 94%
    19:00 -2°C° 0 mm 2 mps 593 mmHg 97%
    20:00 -2°C° 0 mm 2 mps 593 mmHg 96%
    21:00 -3°C° 0 mm 2 mps 594 mmHg 96%
    22:00 -3°C° 0 mm 2 mps 594 mmHg 95%
    23:00 -3°C° 0 mm 2 mps 594 mmHg 95%

    Tomorrow, 24 March, Friday

    Time Temperature Precipitation Wind Pressure Humidity
    00:00 -3°C° 0 mm 2 mps 594 mmHg 94%
    01:00 -3°C° 0 mm 2 mps 595 mmHg 94%
    02:00 -3°C° 0 mm 2 mps 595 mmHg 94%
    03:00 -3°C° 0 mm 2 mps 595 mmHg 94%
    04:00 -4°C° 0 mm 2 mps 595 mmHg 94%
    05:00 -4°C° 0 mm 2 mps 595 mmHg 93%
    06:00 -4°C° 0 mm 2 mps 595 mmHg 92%
    07:00 -4°C° 0 mm 2 mps 596 mmHg 92%
    08:00 0°C° 0 mm 1 mps 596 mmHg 90%
    09:00 +2°C° 0 mm 1 mps 597 mmHg 87%
    10:00 +4°C° 0 mm 1 mps 598 mmHg 85%
    11:00 +5°C° 0 mm 1 mps 599 mmHg 83%
    12:00 +6°C° 0 mm 1 mps 599 mmHg 80%
    13:00 +7°C° 0 mm 1 mps 600 mmHg 78%
    14:00 +7°C° 0 mm 1 mps 600 mmHg 80%
    15:00 +7°C° 0 mm 1 mps 599 mmHg 82%
    16:00 +6°C° 0 mm 1 mps 599 mmHg 84%
    17:00 +4°C° 0 mm 1 mps 599 mmHg 87%
    18:00 +3°C° 0 mm 1 mps 598 mmHg 91%
    19:00 +1°C° 0 mm 1 mps 597 mmHg 95%
    20:00 +1°C° 0 mm 1 mps 597 mmHg 95%
    21:00 0°C° 0 mm 1 mps 597 mmHg 94%
    22:00 0°C° 0 mm 1 mps 598 mmHg 94%
    23:00 -1°C° 0 mm 1 mps 597 mmHg 94%

    Day after tomorrow, 25 March, Saturday

    Time Temperature Precipitation Wind Pressure Humidity
    00:00 -1°C° 0 mm 1 mps 597 mmHg 94%
    01:00 -1°C° 0 mm 1 mps 597 mmHg 94%
    02:00 -1°C° 0 mm 1 mps 597 mmHg 94%
    03:00 -2°C° 0 mm 1 mps 597 mmHg 94%
    04:00 -2°C° 0 mm 1 mps 596 mmHg 94%
    05:00 -1°C° 0 mm 1 mps 596 mmHg 94%
    06:00 -1°C° 0 mm 1 mps 597 mmHg 93%
    07:00 -1°C° 0 mm 1 mps 597 mmHg 93%
    08:00 +1°C° 0 mm 1 mps 597 mmHg 89%
    09:00 +2°C° 0 mm 2 mps 598 mmHg 85%
    10:00 +4°C° 0 mm 2 mps 599 mmHg 80%
    11:00 +5°C° 0 mm 2 mps 599 mmHg 79%
    12:00 +6°C° 0 mm 2 mps 599 mmHg 77%
    13:00 +6°C° 0 mm 2 mps 599 mmHg 75%
    14:00 +6°C° 0 mm 2 mps 598 mmHg 76%
    15:00 +6°C° 0 mm 2 mps 597 mmHg 77%
    16:00 +6°C° 0 mm 2 mps 597 mmHg 79%
    17:00 +3°C° 0 mm 2 mps 596 mmHg 84%
    18:00 +2°C° 0 mm 1 mps 594 mmHg 90%
    19:00 0°C° 0 mm 1 mps 593 mmHg 95%
    20:00 0°C° 0 mm 1 mps 593 mmHg 95%
    21:00 -1°C° 0 mm 1 mps 593 mmHg 95%
    22:00 -3°C° 0 mm 2 mps 593 mmHg 95%
    23:00 -3°C° 0 mm 2 mps 593 mmHg 95%

    26 March, Sunday

    Time Temperature Precipitation Wind Pressure Humidity
    00:00 -4°C° 0 mm 2 mps 592 mmHg 95%
    01:00 -4°C° 0 mm 2 mps 592 mmHg 95%
    02:00 -2°C° 0 mm 1 mps 592 mmHg 95%
    03:00 -3°C° 0 mm 1 mps 591 mmHg 95%
    04:00 -4°C° 0 mm 1 mps 591 mmHg 95%
    05:00 -3°C° 0 mm 1 mps 591 mmHg 93%
    06:00 -3°C° 0 mm 1 mps 591 mmHg 91%
    07:00 -3°C° 0 mm 1 mps 591 mmHg 89%
    08:00 -1°C° 0.4 mm 1 mps 591 mmHg 88%
    09:00 0°C° 0.4 mm 1 mps 592 mmHg 87%
    10:00 -1°C° 0.4 mm 2 mps 592 mmHg 86%
    11:00 -1°C° 0.5 mm 2 mps 592 mmHg 86%
    12:00 -1°C° 0.5 mm 2 mps 592 mmHg 86%
    13:00 -1°C° 0.5 mm 2 mps 591 mmHg 86%
    14:00 -1°C° 0.5 mm 2 mps 591 mmHg 87%
    15:00 -1°C° 0.5 mm 2 mps 591 mmHg 88%
    16:00 -2°C° 0.5 mm 2 mps 591 mmHg 89%
    17:00 -2°C° 0.7 mm 2 mps 591 mmHg 91%
    18:00 -3°C° 0.7 mm 2 mps 591 mmHg 92%
    19:00 -4°C° 0.7 mm 2 mps 591 mmHg 94%
    20:00 -5°C° 0.6 mm 2 mps 591 mmHg 94%
    21:00 -5°C° 0.6 mm 2 mps 591 mmHg 94%
    22:00 -6°C° 0.6 mm 2 mps 591 mmHg 94%
    23:00 -6°C° 0.2 mm 2 mps 591 mmHg 94%

    27 March, Monday

    Time Temperature Precipitation Wind Pressure Humidity
    00:00 -6°C° 0.2 mm 2 mps 591 mmHg 94%
    01:00 -6°C° 0.2 mm 1 mps 591 mmHg 94%
    02:00 -6°C° 0.1 mm 1 mps 591 mmHg 94%
    03:00 -7°C° 0.1 mm 1 mps 591 mmHg 94%
    04:00 -7°C° 0.1 mm 1 mps 591 mmHg 94%
    05:00 -7°C° 0 mm 1 mps 591 mmHg 93%
    06:00 -7°C° 0 mm 1 mps 591 mmHg 92%
    07:00 -7°C° 0 mm 1 mps 591 mmHg 91%
    08:00 -6°C° 0 mm 1 mps 592 mmHg 87%
    09:00 -3°C° 0 mm 1 mps 593 mmHg 83%
    10:00 -2°C° 0 mm 1 mps 594 mmHg 79%
    11:00 -1°C° 0 mm 1 mps 594 mmHg 78%
    12:00 -3°C° 0 mm 2 mps 594 mmHg 78%
    13:00 -2°C° 0 mm 2 mps 594 mmHg 78%
    14:00 -2°C° 0.1 mm 2 mps 594 mmHg 79%
    15:00 -2°C° 0.1 mm 2 mps 593 mmHg 80%
    16:00 -3°C° 0.1 mm 2 mps 593 mmHg 82%
    17:00 -4°C° 0.1 mm 2 mps 593 mmHg 86%
    18:00 -6°C° 0.1 mm 2 mps 592 mmHg 90%
    19:00 -6°C° 0.1 mm 1 mps 592 mmHg 93%
    20:00 -7°C° 0 mm 1 mps 592 mmHg 94%
    21:00 -8°C° 0 mm 1 mps 592 mmHg 95%
    22:00 -9°C° 0 mm 1 mps 592 mmHg 95%
    23:00 -10°C° 0 mm 1 mps 591 mmHg 95%

    28 March, Tuesday

    Time Temperature Precipitation Wind Pressure Humidity
    00:00 -11°C° 0 mm 1 mps 590 mmHg 94%
    01:00 -12°C° 0 mm 1 mps 590 mmHg 93%
    02:00 -13°C° 0 mm 1 mps 589 mmHg 92%
    03:00 -13°C° 0 mm 1 mps 589 mmHg 91%
    04:00 -14°C° 0 mm 1 mps 588 mmHg 89%
    05:00 -13°C° 0 mm 1 mps 589 mmHg 86%
    06:00 -12°C° 0 mm 1 mps 590 mmHg 83%
    07:00 -11°C° 0 mm 1 mps 590 mmHg 80%
    08:00 -8°C° 0 mm 1 mps 592 mmHg 75%
    09:00 -6°C° 0 mm 1 mps 593 mmHg 70%
    10:00 -2°C° 0 mm 1 mps 594 mmHg 66%
    11:00 -1°C° 0 mm 1 mps 594 mmHg 65%
    12:00 -1°C° 0 mm 1 mps 594 mmHg 65%
    13:00 0°C° 0 mm 1 mps 595 mmHg 65%
    14:00 -2°C° 0 mm 2 mps 594 mmHg 68%
    15:00 -2°C° 0 mm 2 mps 594 mmHg 71%
    16:00 -2°C° 0 mm 2 mps 594 mmHg 73%
    17:00 -4°C° 0.1 mm 2 mps 593 mmHg 80%
    18:00 -4°C° 0.1 mm 1 mps 593 mmHg 86%
    19:00 -7°C° 0.1 mm 1 mps 592 mmHg 92%
    20:00 -7°C° 0 mm 1 mps 592 mmHg 92%
    21:00 -8°C° 0 mm 1 mps 592 mmHg 92%
    22:00 -8°C° 0 mm 1 mps 592 mmHg 92%
    23:00 -8°C° 0 mm 1 mps 592 mmHg 91%
    Show more